QPF
0.02 0.04 0.04 0.01 0.00 0.00 0.00 0.01 0.01 0.01 0.00 0.00 0.00 0.00 0.00 0.00 0.00 0.00 0.00 0.00 0.00 0.00 0.00 0.00 0.00 0.00 0.00 0.00 0.00 0.00 0.00 0.00 0.00 0.00 0.00 0.00 0.00 0.00 0.00 0.00 0.00 0.00 0.00 0.00
0.01 0.03 0.02 0.00 0.00 0.01 0.01 0.01 0.01 0.01 0.01 0.00 0.00 0.00 0.00 0.00 0.00 0.00 0.00 0.00 0.00 0.00 0.00 0.00 0.00 0.00 0.00 0.00 0.00 0.00 0.00 0.00 0.00 0.00 0.00 0.00 0.00 0.00 0.00 0.00 0.00 0.00 0.00 0.00
0.00 0.01 0.01 0.00 0.00 0.00 0.00 0.00 0.01 0.01 0.00 0.00 0.00 0.00 0.00 0.00 0.00 0.00 0.00 0.00 0.00 0.00 0.00 0.00 0.00 0.00 0.00 0.00 0.00 0.00 0.00 0.00 0.00 0.00 0.00 0.00 0.00 0.00 0.00 0.00 0.00 0.01 0.01 0.00
0.00 0.00 0.00 0.01 0.01 0.00 0.01 0.01 0.01 0.00 0.00 0.01 0.00 0.01 0.00 0.00 0.00 0.00 0.00 0.00 0.00 0.00 0.00 0.00 0.00 0.00 0.00 0.00 0.00 0.00 0.00 0.00 0.00 0.00 0.00 0.00 0.00 0.00 0.00 0.00 0.01 0.01 0.00 0.00
0.01 0.00 0.00 0.01 0.01 0.00 0.00 0.01 0.01 0.00 0.01 0.01 0.00 0.00 0.00 0.00 0.00 0.00 0.00 0.00 0.00 0.00 0.00 0.00 0.00 0.00 0.00 0.00 0.00 0.00 0.00 0.00 0.00 0.00 0.00 0.00 0.00 0.00 0.00 0.00 0.00 0.01 0.01 0.00
0.01 0.00 0.00 0.01 0.01 0.00 0.00 0.01 0.01 0.00 0.00 0.01 0.00 0.00 0.00 0.00 0.00 0.00 0.00 0.00 0.00 0.00 0.00 0.00 0.00 0.00 0.00 0.00 0.00 0.00 0.00 0.00 0.00 0.00 0.00 0.00 0.00 0.00 0.00 0.00 0.00 0.01 0.01 0.01
0.01 0.00 0.00 0.01 0.02 0.01 0.01 0.01 0.01 0.01 0.01 0.01 0.00 0.00 0.00 0.00 0.00 0.00 0.00 0.00 0.00 0.00 0.00 0.00 0.00 0.00 0.00 0.00 0.00 0.00 0.00 0.00 0.00 0.00 0.00 0.00 0.00 0.00 0.00 0.00 0.00 0.00 0.00 0.00
0.00 0.01 0.01 0.01 0.02 0.01 0.01 0.01 0.01 0.01 0.01 0.00 0.00 0.00 0.00 0.00 0.00 0.00 0.00 0.00 0.00 0.00 0.00 0.00 0.00 0.00 0.00 0.00 0.00 0.00 0.00 0.00 0.00 0.00 0.00 0.00 0.00 0.00 0.00 0.00 0.00 0.00 0.00 0.00
0.00 0.00 0.00 0.01 0.01 0.01 0.01 0.00 0.00 0.00 0.00 0.00 0.00 0.00 0.00 0.00 0.00 0.00 0.00 0.00 0.00 0.00 0.00 0.00 0.00 0.00 0.00 0.00 0.00 0.00 0.00 0.00 0.00 0.00 0.00 0.00 0.00 0.00 0.00 0.00 0.01 0.00 0.00 0.00
0.00 0.00 0.00 0.00 0.00 0.00 0.00 0.00 0.00 0.00 0.00 0.00 0.00 0.00 0.00 0.00 0.00 0.00 0.00 0.00 0.00 0.00 0.00 0.00 0.00 0.00 0.00 0.00 0.00 0.00 0.00 0.00 0.00 0.00 0.00 0.00 0.00 0.00 0.00 0.00 0.00 0.00 0.00 0.00
0.00 0.00 0.00 0.00 0.00 0.00 0.00 0.00 0.00 0.00 0.00 0.00 0.00 0.00 0.00 0.00 0.00 0.00 0.00 0.00 0.00 0.00 0.00 0.00 0.00 0.00 0.00 0.00 0.00 0.00 0.00 0.00 0.00 0.00 0.00 0.00 0.00 0.00 0.00 0.00 0.00 0.00 0.00 0.00
0.00 0.00 0.00 0.00 0.00 0.00 0.00 0.00 0.00 0.00 0.00 0.00 0.00 0.00 0.00 0.00 0.00 0.00 0.00 0.00 0.00 0.00 0.00 0.00 0.00 0.00 0.00 0.00 0.00 0.00 0.00 0.00 0.00 0.00 0.00 0.00 0.00 0.00 0.00 0.00 0.00 0.00 0.00 0.00
0.00 0.00 0.00 0.00 0.00 0.00 0.00 0.00 0.00 0.00 0.00 0.00 0.00 0.00 0.00 0.00 0.00 0.00 0.00 0.00 0.00 0.00 0.00 0.00 0.00 0.00 0.00 0.00 0.00 0.00 0.00 0.00 0.00 0.00 0.00 0.00 0.00 0.00 0.00 0.00 0.00 0.00 0.00 0.00
0.00 0.00 0.00 0.00 0.00 0.00 0.00 0.00 0.00 0.00 0.00 0.00 0.00 0.00 0.00 0.00 0.00 0.00 0.00 0.00 0.00 0.00 0.00 0.00 0.00 0.00 0.00 0.00 0.00 0.00 0.00 0.00 0.00 0.00 0.00 0.00 0.00 0.00 0.00 0.00 0.00 0.00 0.00 0.00
0.00 0.00 0.00 0.00 0.00 0.00 0.00 0.00 0.00 0.00 0.00 0.00 0.00 0.00 0.00 0.00 0.00 0.00 0.00 0.00 0.00 0.00 0.00 0.00 0.00 0.00 0.00 0.00 0.00 0.00 0.00 0.00 0.00 0.00 0.00 0.00 0.00 0.00 0.00 0.00 0.00 0.00 0.00 0.00
0.00 0.00 0.00 0.00 0.00 0.00 0.00 0.00 0.00 0.00 0.00 0.00 0.00 0.00 0.00 0.00 0.00 0.00 0.00 0.00 0.00 0.00 0.00 0.00 0.00 0.00 0.00 0.00 0.00 0.00 0.00 0.00 0.00 0.00 0.00 0.00 0.00 0.00 0.00 0.00 0.00 0.00 0.00 0.00
0.00 0.00 0.00 0.00 0.00 0.00 0.00 0.00 0.00 0.00 0.00 0.00 0.00 0.00 0.00 0.00 0.00 0.00 0.00 0.00 0.00 0.00 0.00 0.00 0.00 0.00 0.00 0.00 0.00 0.00 0.00 0.00 0.00 0.00 0.00 0.00 0.00 0.00 0.00 0.00 0.00 0.00 0.00 0.00
0.00 0.00 0.00 0.00 0.00 0.00 0.00 0.00 0.00 0.00 0.00 0.00 0.00 0.00 0.00 0.00 0.00 0.00 0.00 0.00 0.00 0.00 0.00 0.00 0.00 0.00 0.00 0.00 0.00 0.00 0.00 0.00 0.00 0.00 0.00 0.00 0.00 0.00 0.00 0.00 0.00 0.00 0.00 0.00
0.00 0.00 0.00 0.00 0.00 0.00 0.00 0.00 0.00 0.00 0.00 0.00 0.00 0.00 0.00 0.00 0.00 0.00 0.00 0.00 0.00 0.00 0.00 0.00 0.00 0.00 0.00 0.00 0.00 0.00 0.00 0.00 0.00 0.00 0.00 0.00 0.00 0.00 0.00 0.00 0.00 0.00 0.00 0.00
0.00 0.00 0.00 0.00 0.00 0.00 0.00 0.00 0.00 0.00 0.00 0.00 0.00 0.00 0.00 0.00 0.00 0.00 0.00 0.00 0.00 0.00 0.00 0.00 0.00 0.00 0.00 0.00 0.00 0.00 0.00 0.00 0.00 0.00 0.00 0.00 0.00 0.00 0.00 0.00 0.00 0.00 0.00 0.00
0.00 0.00 0.00 0.00 0.00 0.00 0.00 0.00 0.00 0.00 0.00 0.00 0.00 0.00 0.00 0.00 0.00 0.00 0.00 0.00 0.00 0.00 0.00 0.00 0.00 0.00 0.00 0.00 0.00 0.00 0.00 0.00 0.00 0.00 0.00 0.00 0.00 0.00 0.00 0.00 0.00 0.00 0.00 0.00
0.00 0.00 0.00 0.00 0.00 0.00 0.00 0.00 0.00 0.00 0.00 0.00 0.00 0.00 0.00 0.00 0.00 0.00 0.00 0.00 0.00 0.00 0.00 0.00 0.00 0.00 0.00 0.00 0.00 0.00 0.00 0.00 0.00 0.00 0.00 0.00 0.00 0.00 0.00 0.00 0.00 0.00 0.01 0.00
0.00 0.00 0.00 0.00 0.00 0.00 0.00 0.00 0.00 0.00 0.00 0.00 0.00 0.00 0.00 0.00 0.00 0.00 0.00 0.00 0.00 0.00 0.00 0.00 0.00 0.00 0.00 0.00 0.00 0.00 0.00 0.00 0.00 0.00 0.00 0.00 0.00 0.00 0.00 0.00 0.00 0.00 0.01 0.01
0.00 0.00 0.00 0.00 0.00 0.00 0.00 0.00 0.00 0.00 0.00 0.00 0.00 0.00 0.00 0.00 0.00 0.00 0.00 0.00 0.00 0.00 0.00 0.00 0.00 0.00 0.00 0.00 0.00 0.00 0.00 0.00 0.00 0.00 0.00 0.00 0.00 0.00 0.00 0.00 0.00 0.00 0.01 0.01
0.00 0.00 0.00 0.00 0.00 0.00 0.00 0.00 0.00 0.00 0.00 0.00 0.00 0.00 0.00 0.00 0.00 0.00 0.00 0.00 0.00 0.00 0.00 0.00 0.00 0.00 0.00 0.00 0.00 0.00 0.00 0.00 0.00 0.00 0.00 0.00 0.00 0.00 0.00 0.00 0.00 0.00 0.01 0.01
0.00 0.00 0.00 0.00 0.00 0.00 0.00 0.00 0.00 0.00 0.00 0.00 0.00 0.00 0.00 0.00 0.00 0.00 0.00 0.00 0.00 0.00 0.00 0.00 0.00 0.00 0.00 0.00 0.00 0.00 0.00 0.00 0.00 0.00 0.00 0.00 0.00 0.00 0.00 0.00 0.00 0.00 0.00 0.01
MSLP
1013.67 1013.97 1014.22 1014.39 1014.51 1014.55 1014.55 1014.50 1014.42 1014.30 1014.14 1013.94 1013.70 1013.41 1013.09 1012.75 1012.41 1012.11 1011.85 1011.66 1011.54 1011.49 1011.51 1011.57 1011.66 1011.77 1011.90 1012.05 1012.23 1012.46 1012.74 1013.06 1013.42 1013.79 1014.14 1014.45 1014.67 1014.79 1014.82 1014.75 1014.63 1014.48 1014.33 1014.20
1014.02 1014.25 1014.44 1014.56 1014.64 1014.67 1014.68 1014.66 1014.62 1014.56 1014.45 1014.30 1014.08 1013.79 1013.45 1013.06 1012.66 1012.28 1011.94 1011.67 1011.48 1011.36 1011.32 1011.33 1011.38 1011.46 1011.57 1011.70 1011.89 1012.12 1012.41 1012.76 1013.14 1013.54 1013.92 1014.25 1014.49 1014.64 1014.68 1014.63 1014.53 1014.39 1014.27 1014.17
1014.20 1014.38 1014.51 1014.59 1014.64 1014.67 1014.70 1014.73 1014.77 1014.78 1014.76 1014.68 1014.52 1014.27 1013.94 1013.54 1013.10 1012.66 1012.24 1011.89 1011.61 1011.40 1011.28 1011.22 1011.20 1011.23 1011.30 1011.42 1011.58 1011.81 1012.11 1012.46 1012.86 1013.27 1013.66 1014.00 1014.26 1014.42 1014.48 1014.46 1014.38 1014.28 1014.18 1014.11
1014.23 1014.35 1014.44 1014.49 1014.53 1014.57 1014.64 1014.74 1014.86 1014.98 1015.07 1015.10 1015.04 1014.88 1014.60 1014.22 1013.77 1013.29 1012.82 1012.38 1012.00 1011.70 1011.47 1011.32 1011.22 1011.18 1011.19 1011.27 1011.40 1011.60 1011.88 1012.21 1012.60 1013.00 1013.38 1013.72 1013.98 1014.16 1014.24 1014.25 1014.20 1014.14 1014.08 1014.03
1014.14 1014.22 1014.27 1014.30 1014.34 1014.41 1014.53 1014.71 1014.94 1015.19 1015.43 1015.60 1015.68 1015.63 1015.45 1015.13 1014.70 1014.20 1013.68 1013.17 1012.70 1012.29 1011.95 1011.69 1011.50 1011.37 1011.31 1011.31 1011.38 1011.53 1011.76 1012.05 1012.39 1012.75 1013.11 1013.43 1013.68 1013.86 1013.96 1013.99 1013.99 1013.96 1013.93 1013.92
1014.00 1014.04 1014.07 1014.09 1014.14 1014.24 1014.43 1014.70 1015.05 1015.44 1015.83 1016.17 1016.40 1016.50 1016.43 1016.20 1015.82 1015.34 1014.79 1014.22 1013.67 1013.16 1012.72 1012.35 1012.05 1011.82 1011.66 1011.58 1011.57 1011.63 1011.78 1011.99 1012.25 1012.55 1012.84 1013.12 1013.35 1013.52 1013.63 1013.69 1013.71 1013.72 1013.72 1013.73
1013.85 1013.87 1013.88 1013.91 1013.97 1014.12 1014.36 1014.73 1015.19 1015.72 1016.26 1016.77 1017.16 1017.41 1017.48 1017.35 1017.05 1016.60 1016.05 1015.45 1014.84 1014.25 1013.71 1013.24 1012.84 1012.51 1012.25 1012.06 1011.94 1011.89 1011.92 1012.02 1012.18 1012.38 1012.59 1012.80 1012.98 1013.13 1013.24 1013.31 1013.35 1013.39 1013.42 1013.46
1013.74 1013.76 1013.77 1013.80 1013.89 1014.07 1014.37 1014.81 1015.37 1016.02 1016.70 1017.35 1017.89 1018.29 1018.49 1018.47 1018.24 1017.85 1017.32 1016.72 1016.07 1015.44 1014.83 1014.28 1013.79 1013.36 1013.00 1012.69 1012.45 1012.28 1012.18 1012.14 1012.17 1012.24 1012.35 1012.47 1012.59 1012.70 1012.79 1012.86 1012.91 1012.96 1013.01 1013.08
1013.71 1013.73 1013.75 1013.79 1013.90 1014.11 1014.45 1014.95 1015.58 1016.31 1017.09 1017.85 1018.52 1019.03 1019.34 1019.42 1019.28 1018.95 1018.47 1017.89 1017.25 1016.59 1015.95 1015.35 1014.79 1014.29 1013.83 1013.42 1013.06 1012.76 1012.52 1012.34 1012.22 1012.16 1012.15 1012.17 1012.21 1012.26 1012.31 1012.35 1012.40 1012.45 1012.52 1012.59
1013.76 1013.80 1013.84 1013.89 1014.02 1014.24 1014.61 1015.13 1015.80 1016.58 1017.41 1018.24 1018.97 1019.56 1019.96 1020.12 1020.06 1019.80 1019.38 1018.84 1018.23 1017.59 1016.96 1016.34 1015.75 1015.19 1014.66 1014.17 1013.71 1013.29 1012.92 1012.60 1012.35 1012.16 1012.02 1011.94 1011.89 1011.86 1011.85 1011.85 1011.87 1011.90 1011.96 1012.03
1013.90 1013.96 1014.01 1014.09 1014.22 1014.45 1014.82 1015.34 1016.01 1016.79 1017.63 1018.47 1019.23 1019.86 1020.30 1020.52 1020.53 1020.33 1019.98 1019.51 1018.96 1018.36 1017.76 1017.16 1016.57 1016.00 1015.43 1014.88 1014.35 1013.84 1013.37 1012.95 1012.58 1012.27 1012.02 1011.83 1011.68 1011.57 1011.49 1011.42 1011.39 1011.38 1011.39 1011.45
1014.11 1014.20 1014.27 1014.35 1014.49 1014.72 1015.08 1015.57 1016.21 1016.96 1017.77 1018.58 1019.32 1019.94 1020.40 1020.65 1020.70 1020.57 1020.29 1019.89 1019.41 1018.89 1018.35 1017.79 1017.23 1016.67 1016.11 1015.53 1014.96 1014.40 1013.87 1013.37 1012.92 1012.52 1012.18 1011.89 1011.65 1011.45 1011.28 1011.13 1011.01 1010.93 1010.89 1010.90
1014.38 1014.49 1014.58 1014.67 1014.81 1015.03 1015.36 1015.82 1016.41 1017.09 1017.84 1018.59 1019.28 1019.87 1020.30 1020.57 1020.65 1020.57 1020.36 1020.04 1019.64 1019.20 1018.74 1018.25 1017.74 1017.22 1016.68 1016.12 1015.55 1014.97 1014.41 1013.87 1013.37 1012.91 1012.51 1012.14 1011.81 1011.52 1011.25 1011.00 1010.78 1010.60 1010.47 1010.41
1014.70 1014.82 1014.92 1015.02 1015.15 1015.36 1015.66 1016.07 1016.60 1017.21 1017.87 1018.54 1019.17 1019.70 1020.10 1020.36 1020.46 1020.43 1020.28 1020.04 1019.73 1019.38 1018.99 1018.57 1018.13 1017.66 1017.16 1016.63 1016.08 1015.52 1014.96 1014.42 1013.90 1013.42 1012.97 1012.54 1012.14 1011.76 1011.39 1011.03 1010.69 1010.40 1010.15 1009.98
1015.02 1015.15 1015.26 1015.37 1015.50 1015.69 1015.96 1016.33 1016.79 1017.32 1017.90 1018.48 1019.03 1019.50 1019.87 1020.11 1020.23 1020.24 1020.15 1019.98 1019.75 1019.48 1019.17 1018.82 1018.44 1018.02 1017.57 1017.08 1016.56 1016.03 1015.50 1014.97 1014.46 1013.97 1013.49 1013.03 1012.57 1012.10 1011.63 1011.16 1010.71 1010.28 1009.91 1009.61
1015.32 1015.46 1015.57 1015.69 1015.82 1016.00 1016.24 1016.56 1016.96 1017.42 1017.91 1018.41 1018.89 1019.30 1019.64 1019.88 1020.02 1020.06 1020.03 1019.93 1019.77 1019.56 1019.31 1019.02 1018.69 1018.32 1017.90 1017.45 1016.96 1016.47 1015.96 1015.46 1014.97 1014.48 1014.00 1013.51 1013.00 1012.47 1011.91 1011.33 1010.75 1010.20 1009.69 1009.26
1015.55 1015.69 1015.82 1015.93 1016.07 1016.23 1016.45 1016.74 1017.08 1017.47 1017.90 1018.33 1018.75 1019.12 1019.44 1019.68 1019.84 1019.93 1019.95 1019.91 1019.81 1019.66 1019.46 1019.20 1018.90 1018.55 1018.15 1017.72 1017.26 1016.78 1016.30 1015.82 1015.35 1014.87 1014.39 1013.88 1013.33 1012.75 1012.12 1011.45 1010.77 1010.10 1009.47 1008.90
1015.67 1015.81 1015.94 1016.06 1016.20 1016.36 1016.56 1016.81 1017.11 1017.46 1017.83 1018.21 1018.58 1018.94 1019.24 1019.50 1019.69 1019.83 1019.90 1019.91 1019.86 1019.75 1019.58 1019.35 1019.06 1018.71 1018.31 1017.88 1017.42 1016.95 1016.48 1016.01 1015.54 1015.07 1014.59 1014.07 1013.50 1012.88 1012.20 1011.47 1010.71 1009.94 1009.21 1008.53
1015.64 1015.78 1015.92 1016.05 1016.18 1016.34 1016.53 1016.76 1017.02 1017.33 1017.67 1018.02 1018.37 1018.72 1019.03 1019.32 1019.55 1019.73 1019.85 1019.91 1019.90 1019.82 1019.66 1019.43 1019.13 1018.77 1018.35 1017.90 1017.43 1016.95 1016.47 1016.00 1015.53 1015.06 1014.57 1014.05 1013.47 1012.83 1012.12 1011.36 1010.55 1009.73 1008.92 1008.15
1015.46 1015.60 1015.73 1015.86 1016.00 1016.15 1016.33 1016.55 1016.80 1017.09 1017.40 1017.74 1018.10 1018.45 1018.79 1019.10 1019.38 1019.60 1019.77 1019.87 1019.88 1019.81 1019.66 1019.42 1019.10 1018.71 1018.27 1017.79 1017.30 1016.80 1016.30 1015.82 1015.34 1014.87 1014.37 1013.84 1013.27 1012.63 1011.92 1011.15 1010.32 1009.47 1008.62 1007.80
1015.15 1015.27 1015.39 1015.52 1015.65 1015.81 1015.99 1016.20 1016.45 1016.73 1017.05 1017.40 1017.77 1018.14 1018.51 1018.86 1019.17 1019.43 1019.63 1019.75 1019.78 1019.71 1019.55 1019.30 1018.95 1018.54 1018.07 1017.57 1017.05 1016.52 1016.01 1015.51 1015.02 1014.53 1014.03 1013.51 1012.94 1012.31 1011.61 1010.86 1010.05 1009.21 1008.36 1007.52
1014.75 1014.83 1014.93 1015.04 1015.17 1015.33 1015.52 1015.74 1016.00 1016.31 1016.65 1017.02 1017.41 1017.81 1018.21 1018.59 1018.92 1019.21 1019.42 1019.55 1019.58 1019.51 1019.33 1019.06 1018.70 1018.26 1017.78 1017.25 1016.72 1016.18 1015.65 1015.13 1014.63 1014.13 1013.63 1013.10 1012.53 1011.92 1011.26 1010.54 1009.77 1008.96 1008.13 1007.30
1014.30 1014.33 1014.39 1014.48 1014.61 1014.77 1014.98 1015.23 1015.52 1015.86 1016.23 1016.64 1017.06 1017.50 1017.92 1018.32 1018.66 1018.95 1019.16 1019.27 1019.29 1019.20 1019.01 1018.72 1018.34 1017.90 1017.41 1016.89 1016.34 1015.80 1015.27 1014.74 1014.23 1013.72 1013.20 1012.66 1012.11 1011.51 1010.87 1010.19 1009.47 1008.71 1007.93 1007.13
1013.86 1013.82 1013.84 1013.90 1014.02 1014.20 1014.43 1014.72 1015.06 1015.45 1015.87 1016.32 1016.78 1017.24 1017.68 1018.07 1018.41 1018.68 1018.86 1018.95 1018.93 1018.82 1018.60 1018.30 1017.92 1017.48 1017.00 1016.49 1015.96 1015.42 1014.89 1014.36 1013.83 1013.31 1012.77 1012.22 1011.66 1011.07 1010.45 1009.80 1009.12 1008.42 1007.68 1006.93
1013.45 1013.34 1013.30 1013.34 1013.46 1013.66 1013.94 1014.28 1014.68 1015.12 1015.60 1016.10 1016.59 1017.06 1017.50 1017.88 1018.19 1018.41 1018.55 1018.59 1018.53 1018.38 1018.14 1017.83 1017.45 1017.03 1016.56 1016.08 1015.57 1015.06 1014.53 1014.00 1013.45 1012.90 1012.34 1011.76 1011.17 1010.57 1009.96 1009.33 1008.68 1008.02 1007.34 1006.64
1013.08 1012.90 1012.82 1012.85 1012.98 1013.22 1013.54 1013.94 1014.41 1014.91 1015.44 1015.97 1016.48 1016.96 1017.38 1017.72 1017.98 1018.15 1018.22 1018.20 1018.09 1017.91 1017.64 1017.32 1016.95 1016.55 1016.11 1015.66 1015.18 1014.68 1014.16 1013.62 1013.06 1012.47 1011.87 1011.25 1010.62 1009.99 1009.36 1008.73 1008.10 1007.46 1006.82 1006.17
Thickness
5708 5708 5707 5714 5720 5722 5724 5724 5724 5729 5737 5736 5737 5740 5746 5750 5749 5750 5753 5755 5755 5756 5758 5756 5753 5751 5749 5746 5743 5740 5736 5732 5728 5725 5722 5719 5717 5715 5712 5709 5705 5701 5699 5696
5704 5704 5714 5720 5720 5722 5723 5722 5723 5729 5736 5737 5737 5739 5745 5745 5745 5747 5750 5754 5755 5755 5755 5753 5751 5749 5748 5745 5742 5740 5736 5732 5729 5724 5722 5718 5715 5713 5711 5707 5703 5700 5697 5694
5707 5710 5718 5717 5717 5719 5721 5722 5723 5724 5732 5738 5737 5734 5739 5743 5746 5746 5748 5751 5754 5752 5753 5753 5750 5748 5746 5743 5741 5738 5736 5732 5728 5724 5720 5716 5713 5711 5709 5706 5702 5699 5695 5692
5709 5715 5716 5716 5717 5722 5715 5725 5726 5727 5730 5726 5735 5719 5731 5738 5740 5741 5742 5746 5747 5749 5751 5750 5747 5746 5745 5744 5742 5739 5736 5733 5728 5724 5719 5716 5711 5709 5707 5705 5702 5699 5695 5692
5710 5716 5717 5716 5720 5724 5722 5729 5730 5730 5731 5729 5732 5728 5725 5735 5729 5733 5738 5741 5744 5747 5748 5747 5746 5745 5745 5744 5740 5738 5735 5731 5727 5723 5718 5714 5712 5710 5708 5704 5701 5698 5696 5692
5718 5725 5726 5725 5728 5730 5729 5729 5729 5732 5734 5714 5719 5723 5712 5721 5721 5727 5734 5738 5742 5744 5745 5745 5745 5744 5743 5741 5738 5736 5732 5729 5725 5721 5718 5714 5711 5708 5705 5702 5699 5698 5696 5692
5715 5722 5728 5732 5725 5727 5730 5726 5716 5712 5711 5709 5720 5717 5708 5718 5724 5726 5728 5733 5738 5740 5742 5741 5740 5740 5738 5737 5735 5734 5731 5727 5724 5721 5719 5716 5712 5709 5705 5702 5700 5697 5695 5693
5713 5711 5725 5730 5729 5727 5728 5730 5716 5704 5704 5711 5719 5713 5712 5721 5724 5727 5729 5731 5733 5735 5737 5736 5736 5736 5735 5734 5733 5732 5729 5726 5724 5721 5720 5717 5714 5710 5708 5703 5700 5698 5695 5693
5722 5715 5728 5730 5734 5734 5728 5728 5732 5726 5720 5714 5715 5715 5718 5722 5721 5722 5723 5726 5727 5729 5731 5732 5732 5733 5732 5731 5730 5729 5727 5725 5723 5721 5719 5716 5714 5710 5707 5704 5701 5698 5696 5693
5735 5721 5726 5730 5734 5730 5736 5733 5729 5723 5709 5703 5705 5709 5708 5709 5710 5715 5717 5719 5721 5723 5725 5726 5727 5728 5729 5729 5728 5727 5725 5724 5722 5720 5718 5715 5712 5709 5706 5703 5701 5698 5695 5692
5739 5729 5724 5730 5727 5728 5728 5727 5727 5724 5722 5711 5701 5702 5709 5706 5707 5709 5712 5714 5715 5716 5718 5720 5721 5722 5723 5724 5723 5722 5722 5720 5719 5717 5716 5713 5710 5708 5705 5702 5700 5697 5694 5692
5737 5737 5726 5726 5731 5734 5734 5731 5729 5719 5714 5716 5712 5700 5708 5707 5707 5707 5707 5709 5710 5711 5713 5714 5715 5716 5717 5717 5718 5718 5717 5716 5714 5713 5712 5710 5708 5706 5703 5702 5699 5697 5695 5692
5735 5733 5719 5716 5721 5729 5727 5723 5725 5727 5722 5715 5707 5700 5707 5706 5704 5703 5702 5704 5706 5706 5707 5709 5710 5710 5710 5711 5711 5712 5712 5711 5710 5709 5707 5706 5705 5704 5702 5700 5699 5696 5695 5692
5734 5734 5725 5714 5720 5725 5720 5717 5719 5723 5718 5713 5710 5704 5700 5698 5697 5697 5698 5699 5701 5701 5702 5703 5703 5704 5704 5705 5705 5706 5706 5705 5705 5703 5702 5701 5701 5700 5698 5697 5695 5694 5693 5691
5736 5730 5727 5724 5722 5722 5717 5715 5715 5718 5719 5715 5709 5704 5699 5697 5695 5694 5695 5695 5695 5695 5696 5696 5697 5697 5698 5699 5699 5699 5699 5699 5699 5698 5696 5696 5696 5695 5693 5692 5691 5690 5689 5688
5733 5727 5723 5716 5716 5716 5711 5711 5711 5709 5710 5709 5704 5699 5701 5698 5695 5693 5692 5690 5689 5689 5689 5690 5691 5691 5691 5692 5692 5692 5692 5692 5692 5690 5690 5689 5689 5688 5686 5686 5686 5686 5685 5684
5725 5725 5719 5715 5712 5712 5707 5711 5709 5707 5708 5707 5700 5700 5696 5691 5688 5687 5685 5684 5683 5682 5682 5683 5684 5684 5684 5685 5685 5684 5684 5684 5683 5682 5682 5681 5681 5680 5680 5680 5679 5679 5679 5680
5721 5721 5719 5714 5707 5696 5709 5712 5709 5704 5701 5701 5698 5695 5691 5688 5686 5684 5681 5679 5677 5676 5676 5676 5677 5677 5677 5677 5676 5676 5675 5675 5674 5673 5672 5672 5672 5671 5672 5672 5671 5672 5674 5675
5716 5714 5712 5710 5704 5704 5702 5704 5703 5699 5695 5696 5693 5689 5687 5685 5683 5680 5676 5673 5670 5668 5668 5668 5668 5669 5668 5667 5666 5666 5665 5664 5663 5661 5661 5662 5662 5662 5662 5663 5664 5665 5666 5668
5707 5710 5710 5704 5697 5697 5707 5706 5704 5699 5690 5693 5690 5685 5681 5679 5676 5674 5670 5666 5663 5661 5659 5659 5659 5659 5657 5656 5656 5655 5654 5653 5651 5649 5649 5650 5651 5651 5652 5654 5656 5657 5658 5659
5701 5700 5701 5700 5699 5706 5701 5698 5696 5685 5693 5690 5686 5682 5677 5674 5672 5667 5663 5659 5656 5653 5651 5650 5649 5647 5646 5645 5644 5643 5642 5641 5639 5639 5638 5638 5638 5639 5641 5643 5645 5647 5648 5650
5704 5700 5697 5697 5693 5695 5693 5691 5690 5692 5690 5685 5680 5676 5671 5667 5662 5658 5654 5650 5648 5645 5642 5640 5638 5637 5635 5634 5633 5632 5630 5629 5628 5627 5626 5626 5627 5627 5630 5630 5632 5635 5637 5639
5697 5700 5700 5698 5695 5692 5691 5690 5688 5686 5682 5677 5673 5668 5663 5657 5653 5649 5645 5642 5639 5636 5633 5630 5628 5626 5625 5624 5621 5619 5618 5617 5616 5615 5614 5614 5615 5616 5617 5618 5620 5623 5624 5627
5690 5686 5685 5685 5686 5683 5681 5680 5677 5675 5672 5668 5665 5659 5654 5649 5645 5640 5636 5633 5629 5626 5623 5620 5618 5616 5614 5612 5610 5608 5606 5604 5603 5602 5602 5602 5603 5604 5604 5604 5607 5610 5613 5615
5683 5678 5678 5678 5678 5673 5672 5671 5669 5665 5662 5658 5654 5650 5645 5640 5635 5631 5627 5624 5620 5616 5614 5610 5607 5604 5603 5601 5599 5596 5594 5592 5591 5591 5590 5589 5589 5589 5590 5592 5594 5596 5600 5601
5676 5675 5672 5675 5677 5673 5668 5665 5660 5654 5650 5647 5643 5638 5635 5631 5626 5622 5618 5614 5610 5607 5603 5600 5597 5593 5592 5590 5587 5584 5581 5579 5578 5578 5577 5576 5575 5576 5577 5579 5583 5586 5586 5588